Voltar ao catálogo

DELTA 1 DEB

AtivoSSO
NORAD 7030·DEBRIS·🇺🇸 United States

Lançado Nov 6, 1973 de Vandenberg Space Force Base

Loading…

Próximas Passagens (próximas 24 horas)

TLE

AtualizadoSource: Space-Track

Época: Sep 14, 2026, 11:30 UTC

1 07030U 73086W   26257.47927007 -.00000018  00000-0  22193-3 0  9992
2 07030 101.9422 245.5703 0090938  20.3946 132.2137 12.24109529360575

Acompanhe DELTA 1 DEB em tempo real com AllMySat

Download on the App Store